Tracking 19484 objects as of 20-Jan-2019
HD Live streaming from Space Station
objects crossing your sky now

COSMOS 794

Track COSMOS 794 now!
10-day predictions
COSMOS 794 is classified as:


NORAD ID: 8610
Int'l Code: 1976-008D
Perigee: 1,458.5 km
Apogee: 1,500.6 km
Inclination: 74.1 °
Period: 115.4 minutes
Semi major axis: 7850 km
RCS: 0.6746 m2 (medium)
Launch date: January 28, 1976
Source: Commonwealth of Independent States (former USSR) (CIS)
Launch site: PLESETSK MISSILE AND SPACE COMPLEX (PKMTR)
aabbcc
Your satellite tracking list
Your tracking list is empty




NASA's NSSDC Master Catalog

Two Line Element Set (TLE):
1  8610U 76008D   19019.70293138  .00000002  00000-0  12219-3 0  9999
2  8610  74.0548  64.7188 0026818 355.8327 138.7652 12.48114543958352
Source of the keplerian elements: AFSPC